TimeEST,TemperatureF,Dew PointF,Humidity,Sea Level PressureIn,VisibilityMPH,Wind Direction,Wind SpeedMPH,Gust SpeedMPH,PrecipitationIn,Events,Conditions,WindDirDegrees,DateUTC
12:53 AM,30.0,24.1,79,30.55,10.0,Calm,Calm,-,N/A,,Clear,0,2013-01-10 05:53:00
1:53 AM,28.9,25.0,85,30.55,10.0,Calm,Calm,-,N/A,,Clear,0,2013-01-10 06:53:00
2:53 AM,27.0,23.0,85,30.56,9.0,Calm,Calm,-,N/A,,Clear,0,2013-01-10 07:53:00
3:53 AM,26.1,21.9,84,30.54,8.0,Calm,Calm,-,N/A,,Clear,0,2013-01-10 08:53:00
4:53 AM,25.0,21.9,88,30.54,7.0,Calm,Calm,-,N/A,,Clear,0,2013-01-10 09:53:00
5:53 AM,25.0,21.9,88,30.56,4.0,Calm,Calm,-,N/A,,Clear,0,2013-01-10 10:53:00
6:53 AM,24.1,21.0,88,30.57,6.0,Calm,Calm,-,N/A,,Clear,0,2013-01-10 11:53:00
7:53 AM,23.0,19.9,88,30.60,6.0,Calm,Calm,-,N/A,,Clear,0,2013-01-10 12:53:00
8:53 AM,26.1,21.9,84,30.62,5.0,Calm,Calm,-,N/A,,Clear,0,2013-01-10 13:53:00
9:53 AM,30.9,27.0,85,30.63,6.0,ESE,3.5,-,N/A,,Clear,110,2013-01-10 14:53:00
10:53 AM,34.0,28.0,79,30.62,9.0,SE,3.5,-,N/A,,Clear,130,2013-01-10 15:53:00
11:53 AM,37.9,27.0,65,30.58,10.0,SSE,3.5,-,N/A,,Clear,160,2013-01-10 16:53:00
12:53 PM,39.0,26.1,60,30.55,10.0,SE,8.1,-,N/A,,Clear,140,2013-01-10 17:53:00
1:53 PM,39.9,27.0,60,30.52,10.0,SSE,8.1,-,N/A,,Clear,150,2013-01-10 18:53:00
2:53 PM,41.0,27.0,57,30.51,10.0,East,4.6,-,N/A,,Clear,100,2013-01-10 19:53:00
3:53 PM,39.9,27.0,60,30.49,10.0,ESE,4.6,-,N/A,,Clear,110,2013-01-10 20:53:00
4:53 PM,39.9,27.0,60,30.48,10.0,ESE,5.8,-,N/A,,Clear,120,2013-01-10 21:53:00
5:53 PM,39.9,28.0,63,30.44,10.0,East,6.9,-,0.00,,Mostly Cloudy,100,2013-01-10 22:53:00
6:53 PM,39.9,27.0,60,30.42,10.0,Variable,4.6,-,N/A,,Overcast,0,2013-01-10 23:53:00
7:53 PM,39.0,27.0,62,30.40,10.0,East,3.5,-,N/A,,Partly Cloudy,90,2013-01-11 00:53:00
8:53 PM,39.0,27.0,62,30.37,10.0,ESE,3.5,-,N/A,,Mostly Cloudy,110,2013-01-11 01:53:00
9:53 PM,39.0,27.0,62,30.33,10.0,Calm,Calm,-,N/A,,Overcast,0,2013-01-11 02:53:00
10:53 PM,37.9,28.0,68,30.29,10.0,SE,5.8,-,N/A,,Overcast,130,2013-01-11 03:53:00
11:53 PM,39.0,27.0,62,30.26,10.0,SE,5.8,-,N/A,,Clear,140,2013-01-11 04:53:00